KTXEAGLE7 Weather Reports


Display with metric or nautical units.
time (UTC)temp
F
wind
direction
speed
MPH
gust
MPH
rain 1hr
in
rain 24hr
in
rain mn
in
humidity
%
barometer
mb
20260904163017 85 148 5.0 8.0 0.00 0.04 0.01 87 1015.4
20260904161515 85 100 3.0 7.0 0.00 0.04 0.01 86 1015.4
20260904160012 84 140 1.0 4.0 0.00 0.04 0.01 87 1015.3
20260904154509 84 171 2.0 5.0 0.00 0.04 0.01 88 1015.1
20260904153124 84 116 0.0 7.0 0.00 0.04 0.01 89 1014.9
20260904151504 83 132 4.0 8.0 0.00 0.04 0.01 91 1015.0
20260904150005 83 140 4.0 8.0 0.00 0.04 0.01 92 1015.0
20260904144559 82 107 3.0 4.0 0.00 0.04 0.01 94 1015.0
20260904143101 81 112 3.0 4.0 0.00 0.04 0.01 96 1014.8
20260904141554 80 127 2.0 4.0 0.00 0.04 0.01 97 1014.6
20260904140052 80 105 2.0 4.0 0.00 0.04 0.01 98 1014.7
20260904134549 80 90 0.0 0.0 0.00 0.04 0.01 99 1014.7
20260904133054 79 90 0.0 0.0 0.00 0.04 0.01 99 1014.6
20260904131545 79 90 0.0 0.0 0.00 0.04 0.01 99 1014.3
20260904130044 79 90 0.0 0.0 0.00 0.04 0.01 99 1014.2
20260904124548 78 90 0.0 0.0 0.00 0.04 0.01 99 1014.2
20260904123104 78 90 0.0 0.0 0.00 0.04 0.01 99 1014.1
20260904121542 78 90 0.0 0.0 0.01 0.04 0.01 99 1014.0
20260904120040 78 90 0.0 2.0 0.01 0.04 0.01 98 1013.7
20260904114540 78 57 0.0 0.0 0.01 0.04 0.01 98 1013.5
20260904113049 79 57 0.0 0.0 0.01 0.04 0.01 98 1013.6
20260904111538 79 57 0.0 0.0 0.00 0.03 0.00 98 1013.6
20260904110042 79 57 0.0 0.0 0.00 0.03 0.00 98 1013.6
20260904104537 79 57 0.0 0.0 0.00 0.03 0.00 98 1013.4
20260904103037 79 57 0.0 0.0 0.00 0.03 0.00 98 1013.3
20260904101536 79 57 0.0 0.0 0.00 0.03 0.00 98 1013.2
20260904100041 79 57 0.0 0.0 0.00 0.03 0.00 98 1013.3
20260904094532 79 57 0.0 0.0 0.00 0.03 0.00 98 1013.3
20260904093041 79 57 0.0 0.0 0.00 0.03 0.00 98 1013.2
20260904091530 79 40 0.0 4.0 0.00 0.03 0.00 98 1013.1
20260904090030 79 65 0.0 0.0 0.00 0.03 0.00 98 1013.1
20260904084529 79 84 0.0 0.0 0.00 0.03 0.00 98 1013.1
20260904083027 79 84 0.0 0.0 0.00 0.03 0.00 98 1013.2
20260904081526 79 84 0.0 0.0 0.00 0.03 0.00 98 1013.2
20260904080025 79 84 0.0 0.0 0.00 0.03 0.00 98 1013.4
20260904074524 79 84 0.0 0.0 0.00 0.03 0.00 98 1013.5
20260904073024 78 84 0.0 0.0 0.00 0.03 0.00 98 1013.5
20260904071523 78 101 0.0 0.0 0.00 0.03 0.00 98 1013.5
20260904070037 79 130 0.0 0.0 0.00 0.03 0.00 98 1013.6
20260904064522 79 130 0.0 0.0 0.00 0.03 0.00 98 1013.7
20260904063022 79 130 0.0 0.0 0.00 0.03 0.00 98 1013.7
20260904061520 78 130 0.0 3.0 0.00 0.03 0.00 98 1013.8
20260904060022 78 130 1.0 4.0 0.00 0.03 0.00 98 1013.5
20260904054529 78 119 0.0 0.0 0.00 0.03 0.00 98 1013.6
20260904053018 78 110 0.0 0.0 0.00 0.03 0.00 97 1013.4
20260904051516 78 110 0.0 0.0 0.00 0.03 0.00 97 1013.3
20260904050017 78 129 0.0 0.0 0.00 0.03 0.00 97 1013.4
20260904044524 79 139 0.0 0.0 0.00 0.03 0.03 97 1013.5
20260904043016 79 148 0.0 4.0 0.00 0.03 0.03 96 1013.5
20260904041512 79 132 1.0 5.0 0.00 0.03 0.03 96 1013.6
20260904040013 79 116 2.0 4.0 0.00 0.03 0.03 96 1013.6
20260904034527 79 126 3.0 7.0 0.00 0.03 0.03 96 1013.6
20260904033012 78 134 4.0 7.0 0.00 0.03 0.03 96 1013.4
20260904031514 78 111 3.0 6.0 0.00 0.03 0.03 96 1013.5
20260904030011 78 126 4.0 8.0 0.00 0.03 0.03 96 1013.3
20260904024511 79 117 5.0 8.0 0.00 0.03 0.03 95 1013.2
20260904023010 79 109 4.0 8.0 0.00 0.03 0.03 95 1013.4
20260904021509 79 113 5.0 9.0 0.00 0.03 0.03 95 1013.2
20260904020009 79 117 6.0 8.0 0.00 0.03 0.03 95 1013.0
20260904014509 79 112 3.0 8.0 0.00 0.03 0.03 95 1013.0
20260904013009 79 101 4.0 7.0 0.00 0.03 0.03 95 1012.8
20260904011521 79 107 5.0 8.0 0.00 0.03 0.03 94 1012.6
20260904010007 79 120 4.0 8.0 0.00 0.03 0.03 94 1012.5
20260904004506 79 108 4.0 9.0 0.00 0.03 0.03 93 1012.4
20260904003006 79 101 6.0 10.0 0.00 0.03 0.03 92 1012.4
20260904001505 79 91 6.0 11.0 0.00 0.03 0.03 92 1012.2
20260904000007 79 69 5.0 11.0 0.00 0.03 0.03 91 1012.3
20260903234505 80 104 9.0 12.0 0.00 0.03 0.03 90 1012.4
20260903233015 79 94 7.0 13.0 0.00 0.03 0.03 91 1012.6
20260903231504 79 80 8.0 11.0 0.00 0.03 0.03 90 1012.9
20260903230003 79 72 9.0 14.0 0.00 0.03 0.03 90 1012.8
20260903224504 80 99 12.0 18.0 0.00 0.03 0.03 89 1012.6
20260903223003 80 88 5.0 12.0 0.00 0.03 0.03 90 1012.7
20260903221502 80 78 7.0 12.0 0.00 0.03 0.03 90 1012.3
20260903220122 80 96 7.0 11.0 0.00 0.03 0.03 90 1012.3
20260903214600 79 103 7.0 10.0 0.00 0.03 0.03 91 1012.4
20260903213103 79 91 5.0 9.0 0.00 0.03 0.03 92 1012.7
20260903211600 79 78 4.0 10.0 0.00 0.03 0.03 93 1012.8
20260903210106 78 86 5.0 13.0 0.00 0.03 0.03 94 1012.9
20260903204556 77 135 9.0 13.0 0.00 0.03 0.03 93 1013.6
20260903203127 77 91 9.0 23.0 0.01 0.03 0.03 93 1013.6
20260903201553 77 109 17.0 25.0 0.01 0.03 0.03 93 1013.5
20260903200049 78 99 14.0 20.0 0.03 0.03 0.03 89 1013.9
20260903194555 78 97 10.0 18.0 0.03 0.03 0.03 90 1013.3
20260903193046 80 99 14.0 21.0 0.02 0.02 0.02 86 1013.4
20260903191543 84 123 13.0 19.0 0.02 0.02 0.02 77 1013.1
20260903190042 84 128 7.0 12.0 0.00 0.00 0.00 74 1013.1
20260903184541 91 174 6.0 11.0 0.00 0.00 0.00 66 1013.1
20260903183043 92 153 2.0 11.0 0.00 0.00 0.00 67 1013.2
20260903181535 91 136 3.0 7.0 0.00 0.00 0.00 68 1013.5
20260903180030 91 146 6.0 12.0 0.00 0.00 0.00 70 1013.7
20260903174529 90 175 5.0 9.0 0.00 0.00 0.00 74 1013.8
20260903173030 90 201 4.0 11.0 0.00 0.00 0.00 72 1013.9
20260903171525 89 244 4.0 9.0 0.00 0.00 0.00 76 1014.3
20260903170026 89 169 6.0 10.0 0.00 0.00 0.00 76 1014.6
20260903164524 89 198 8.0 15.0 0.00 0.00 0.00 75 1014.8